Lapse_Rate
5.8 5.5 4.6 3.4 3.5 3.7 3.8 4.0 4.0 4.0 4.1 4.2 3.9 3.6 3.5 3.4 3.3 3.2 3.2 3.2 3.2 3.3 3.5 3.4 3.4 3.3 3.2 3.3 3.6 4.0 6.1 8.8
5.4 6.9 6.4 6.3 5.5 4.0 4.1 4.2 4.2 4.3 4.2 4.0 3.8 3.8 3.7 3.5 3.4 3.5 3.2 3.3 3.3 3.2 3.1 3.0 2.9 2.9 3.1 3.3 3.5 4.0 6.3 8.8
7.3 8.4 8.2 8.1 7.6 5.6 4.4 4.5 4.4 4.4 4.6 4.1 4.0 6.8 5.8 4.8 5.4 4.1 3.7 3.6 3.7 3.7 3.5 3.5 3.1 3.0 2.8 2.8 3.2 8.3 9.6 7.7
9.8 9.7 7.6 7.9 8.6 7.5 7.1 7.0 6.7 6.8 6.6 5.4 7.2 8.7 8.9 8.8 6.7 4.3 4.0 3.7 3.6 3.4 3.3 3.2 3.3 8.6 6.5 4.0 6.2 9.6 9.6 9.7
9.8 7.5 7.5 7.4 7.6 6.6 8.8 8.3 8.6 7.9 8.0 7.8 8.9 8.3 8.5 9.3 8.4 6.9 6.7 4.4 6.6 5.1 5.0 6.2 9.2 9.7 9.8 9.4 9.5 9.6 9.7 9.6
9.7 7.4 6.0 6.6 7.3 7.8 8.6 6.7 7.8 8.0 7.8 6.9 8.0 7.5 7.6 8.8 8.2 7.5 9.1 8.4 9.2 9.6 9.7 9.6 9.6 9.4 8.5 9.2 9.7 9.7 9.5 9.3
9.6 9.4 4.7 5.7 6.5 8.4 8.3 7.9 8.4 8.7 8.3 7.1 7.5 7.4 8.9 9.3 9.3 8.9 8.9 9.3 9.5 9.5 9.6 9.7 9.8 9.6 9.6 9.5 9.7 9.7 9.6 9.1
9.5 9.7 5.7 4.9 5.9 6.5 7.4 9.2 8.4 8.8 7.9 7.0 7.6 8.8 9.4 9.3 8.4 8.8 9.4 9.0 9.3 9.2 9.5 8.6 9.1 9.5 9.8 9.7 9.8 9.7 9.4 9.2
9.3 9.5 8.5 4.5 6.4 5.9 6.2 9.3 9.4 8.4 8.8 8.3 7.8 8.3 9.0 8.8 8.0 7.7 7.7 8.6 7.9 7.8 7.5 7.8 6.6 8.9 8.2 8.7 9.7 9.7 9.7 7.3
9.5 9.4 7.2 3.7 5.3 6.0 6.3 8.4 7.7 8.1 8.9 8.6 8.3 7.8 7.8 7.9 8.0 8.3 8.7 8.5 8.0 8.5 9.1 7.6 5.7 6.2 5.4 5.1 5.3 5.4 5.8 7.2
9.3 7.9 3.6 3.4 4.6 5.5 6.1 6.8 5.9 6.3 6.3 5.1 7.3 7.1 7.5 7.9 8.8 9.4 8.9 9.0 8.8 9.1 8.6 8.3 8.0 6.7 7.1 6.8 5.2 6.5 6.7 6.8
9.4 9.1 6.5 3.1 4.1 5.1 5.8 5.7 6.3 5.8 5.7 6.5 8.3 7.2 7.1 7.1 9.4 9.6 9.6 9.6 9.6 9.6 7.9 9.0 7.2 6.8 6.2 5.7 6.3 5.6 6.2 6.9
9.3 9.1 9.1 4.4 3.9 4.8 5.7 4.9 5.3 5.0 6.5 6.4 6.7 7.5 7.4 8.3 9.8 9.8 9.7 9.4 7.8 7.6 8.8 7.3 6.8 6.7 6.0 6.7 7.2 7.5 7.6 7.3
9.2 9.3 9.3 7.4 4.8 6.0 5.7 5.5 6.4 6.2 6.3 6.5 6.9 6.9 8.1 9.1 9.7 9.3 8.4 5.2 5.1 6.2 8.2 8.3 8.9 9.0 7.4 7.2 7.0 7.0 6.8 7.6
9.2 9.3 9.2 6.4 5.7 6.9 8.1 7.6 6.8 7.6 6.8 7.7 7.7 8.8 8.9 9.3 7.4 6.7 7.4 7.2 7.4 7.6 7.5 9.0 8.7 9.1 8.9 8.3 7.9 7.5 8.4 9.0
9.3 9.4 9.0 4.9 4.6 7.2 7.2 7.6 8.3 8.5 9.0 8.3 8.8 9.3 9.7 7.4 6.9 7.3 7.1 8.1 8.4 9.0 9.3 8.4 8.8 8.6 8.8 8.1 7.3 8.3 7.7 7.8
9.0 9.3 9.3 5.8 4.8 6.8 6.9 8.8 9.3 8.8 7.8 8.8 9.4 9.1 9.5 7.6 6.5 6.6 6.8 7.0 7.5 7.8 7.9 8.8 8.7 6.9 8.7 7.7 7.9 7.3 7.2 7.1
5.6 9.0 8.8 6.5 5.4 6.4 7.4 7.8 7.9 8.7 8.4 9.0 9.2 9.3 7.6 6.4 6.4 6.4 6.7 7.0 7.4 7.8 8.1 7.8 8.2 8.0 8.6 7.1 7.8 7.5 5.7 5.9
5.6 7.3 6.9 6.5 5.5 6.6 7.2 7.9 7.4 8.2 9.0 9.3 9.2 9.2 9.0 7.8 6.8 6.5 6.9 7.1 7.4 7.6 7.4 7.0 7.2 7.1 7.2 8.4 8.7 8.2 7.8 7.9
3.6 5.3 5.5 5.1 5.3 6.4 8.0 6.7 7.4 9.2 9.4 9.4 9.3 9.3 9.4 9.5 8.3 7.3 7.1 7.3 7.3 7.3 7.0 7.0 7.9 8.1 7.1 7.2 8.7 9.0 8.9 8.2
Wind_Speed
17 19 19 19 19 18 18 18 17 17 16 15 16 15 13 12 11 10 9 7 6 5 3 2 1 3 5 9 13 14 16 14
13 18 20 18 17 17 18 19 17 16 16 16 16 14 12 11 9 8 7 7 6 6 6 5 4 4 4 5 8 12 15 14
14 14 17 16 18 18 17 15 16 16 15 15 17 14 12 11 6 10 6 5 4 4 4 5 6 6 5 6 8 12 13 10
15 15 12 14 14 18 18 17 17 17 17 17 15 12 10 9 10 7 4 6 7 7 8 9 11 11 11 9 12 13 10 9
13 10 10 13 10 14 16 17 17 16 19 18 15 10 10 8 9 9 9 10 10 10 9 10 13 9 6 11 12 10 10 11
15 14 9 7 10 13 15 9 13 12 12 16 12 8 8 7 12 14 11 12 9 7 7 5 5 8 9 10 9 10 9 8
16 17 12 11 9 10 11 10 12 14 15 15 13 8 6 6 4 1 6 9 5 4 6 5 7 9 9 9 10 11 12 7
15 16 16 11 10 10 8 12 12 9 12 13 13 11 3 4 3 6 4 5 3 4 5 4 4 6 7 9 9 10 10 10
15 14 16 13 14 9 9 11 11 6 8 14 13 11 8 6 4 4 6 5 5 5 6 6 5 7 7 6 9 10 11 10
16 13 14 13 12 11 7 9 7 7 8 6 9 11 11 7 5 5 6 5 5 6 5 5 4 5 2 2 2 4 10 12
18 17 16 15 12 8 6 7 7 7 8 9 12 13 12 9 5 6 6 6 4 5 5 7 6 5 6 6 5 7 6 10
17 16 17 13 9 8 7 6 8 11 10 12 12 11 12 11 8 6 5 5 6 5 7 6 6 4 4 6 7 7 6 9
18 17 18 13 9 9 8 8 7 6 8 13 14 12 13 11 5 4 5 4 7 8 7 7 6 7 4 4 6 7 9 10
17 17 18 15 9 9 9 10 7 10 8 12 14 14 12 10 5 3 2 3 6 8 9 6 7 6 5 5 3 6 8 11
14 17 17 14 13 11 10 10 9 9 10 10 12 15 12 8 7 5 6 7 7 6 7 9 9 9 11 8 7 6 8 4
13 15 15 18 17 14 14 13 13 10 12 9 10 13 11 13 9 7 7 6 6 6 7 7 8 10 9 9 12 12 6 8
9 13 14 18 15 12 13 17 12 9 9 13 10 9 9 9 9 7 7 5 6 7 7 8 7 7 10 7 9 9 7 7
9 11 12 14 13 15 17 17 13 11 8 9 8 9 8 9 9 7 6 6 7 7 8 11 10 9 9 8 8 7 4 6
7 9 9 12 11 14 13 16 11 12 13 11 11 8 8 8 7 6 6 7 8 9 10 10 11 9 10 9 9 9 8 8
10 10 11 13 14 16 15 13 9 11 12 9 8 7 7 6 6 6 7 8 8 9 9 9 10 9 11 11 10 9 9 9
Wind_Direction
159 173 172 167 167 166 165 165 166 162 161 164 148 152 154 155 157 154 152 150 147 151 161 165 167 190 206 213 218 236 260 310
170 180 180 181 178 173 170 172 169 165 165 161 160 160 165 170 166 168 166 165 159 167 172 175 186 191 204 216 225 239 253 287
174 190 182 186 182 175 175 172 168 168 166 168 168 182 182 168 154 151 172 170 166 181 202 200 195 191 195 205 222 233 234 234
178 189 167 185 186 170 186 180 184 189 187 181 197 189 182 170 142 135 176 196 197 196 204 207 213 218 192 198 227 247 236 263
182 194 162 180 170 172 185 187 192 196 194 191 214 205 190 198 157 184 204 200 216 202 205 227 224 263 249 205 220 246 245 245
181 175 178 178 177 188 175 180 185 199 189 194 217 208 185 210 175 193 216 164 226 213 230 254 293 273 273 278 252 252 245 269
183 172 180 184 183 200 176 186 190 203 189 191 218 206 211 196 233 251 201 190 223 253 275 263 242 246 260 254 258 253 254 251
185 182 178 185 193 190 202 214 183 217 163 177 211 231 201 233 213 238 230 241 264 256 266 286 255 266 257 258 263 267 277 254
183 190 170 190 199 188 200 194 214 197 202 178 176 220 216 219 204 229 243 228 259 267 287 314 340 319 340 328 263 256 265 342
183 188 182 189 194 194 196 186 206 197 219 191 184 207 218 209 209 224 211 241 274 254 272 254 234 253 258 324 305 326 295 268
184 185 193 190 188 189 186 186 179 185 180 184 206 210 216 229 221 237 220 248 248 259 270 273 269 250 247 250 236 241 244 253
193 181 188 186 179 182 184 178 189 187 190 202 199 210 216 213 231 241 265 254 282 270 255 281 253 270 281 265 254 242 238 242
198 190 185 176 183 180 173 181 181 181 200 194 196 207 211 219 234 232 226 298 308 317 301 294 279 264 243 253 266 263 256 250
202 202 196 182 184 182 184 183 183 186 194 197 203 208 212 223 221 256 245 247 262 258 277 267 272 267 248 274 265 231 239 247
227 206 200 165 169 201 188 180 180 196 196 199 204 201 207 200 198 215 227 212 252 261 275 274 276 265 254 257 275 255 321 246
225 224 199 159 170 201 190 184 188 195 196 191 189 189 188 194 206 214 228 250 266 264 254 258 272 272 265 256 259 276 282 284
231 219 205 173 173 199 197 198 204 188 198 196 176 173 197 197 205 218 232 240 255 258 274 274 269 265 273 276 263 269 276 261
212 220 184 187 184 198 204 210 199 195 172 171 187 177 187 203 207 219 233 245 253 263 264 263 264 266 257 256 261 250 215 228
201 201 197 195 190 215 214 209 185 192 186 188 182 188 193 195 197 218 237 245 260 260 259 255 252 250 261 268 262 261 262 256
190 196 195 195 198 214 206 205 189 196 191 184 193 192 199 189 205 228 246 255 258 254 256 253 255 249 251 254 262 266 264 262